Sheridan, NY

8:41 PM EDT on August 29, 2016 (GMT -0400)
Chautauqua County-Dunkirk

Weather History for KDKK - July, 2013

Change the Weather History Date:

Friday, July 19, 2013

  Actual Average Record
Temperature  
Mean Temperature 81 °F -  
Max Temperature 90 °F 82 °F 94 °F (1934)
Min Temperature 73 °F 63 °F 49 °F (1971)
Cooling Degree Days 16    
Growing Degree Days 31 (Base 50)    
Moisture  
Dew Point 70 °F    
Average Humidity 66    
Maximum Humidity 84    
Minimum Humidity 52    
Precipitation  
Precipitation 0.02 in - - ()
Sea Level Pressure  
Sea Level Pressure 29.86 in    
Wind  
Wind Speed 16 mph (SW)    
Max Wind Speed 23 mph    
Max Gust Speed 39 mph    
Visibility 10 miles    
Events Rain , Thunderstorm    
Averages and records for this station are not official NWS values.
T = Trace of Precipitation, MM = Missing Value Source: NWS Daily Summary

Daily Weather History Graph

Daily Weather History Graph

Search for Another Location

Airport or City:

Trip Planner

Search our weather history database for the weather conditions in past years. The results will help you decide how hot, cold, wet, or windy it might be!

Date:

Astronomy

Jul. 19, 2013 Rise Set
Actual Time 5:56 AM EDT 8:49 PM EDT
Civil Twilight 5:23 AM EDT 9:22 PM EDT
Nautical Twilight 4:41 AM EDT 10:04 PM EDT
Astronomical Twilight 3:52 AM EDT 10:53 PM EDT
Moon 5:49 PM EDT (7/19) 2:36 AM EDT (7/19)
Length of Visible Light 15h 59m
Length of Day
14h 52m
Waxing Gibbous, 86% of the Moon is Illuminated
Jul 19
Waxing Gibbous
Jul 22
Full
Jul 29
Last Quarter
Aug 6
New
Aug 14
First Quarter

Hourly Weather History & Observations

Time (EDT) Temp. Heat Index Dew Point Humidity Pressure Visibility Wind Dir Wind Speed Gust Speed Precip Events Conditions
12:53 AM 79.0 °F - 66.9 °F 66% 29.96 in 10.0 mi SSW 13.8 mph - N/A   Clear
1:53 AM 79.0 °F - 68.0 °F 69% 29.95 in 10.0 mi SSW 16.1 mph - N/A   Clear
2:53 AM 79.0 °F - 68.0 °F 69% 29.93 in 10.0 mi SSW 18.4 mph - N/A   Clear
3:53 AM 79.0 °F - 69.1 °F 72% 29.92 in 10.0 mi SSW 19.6 mph - N/A   Clear
4:53 AM 78.1 °F - 69.1 °F 74% 29.91 in 10.0 mi SSW 18.4 mph - N/A   Clear
5:53 AM 78.1 °F - 70.0 °F 76% 29.91 in 10.0 mi SSW 17.3 mph - N/A   Clear
6:53 AM 78.1 °F - 71.1 °F 79% 29.91 in 10.0 mi SSW 17.3 mph - N/A   Clear
7:53 AM 80.1 °F 83.8 °F 72.0 °F 76% 29.91 in 10.0 mi SSW 15.0 mph - N/A   Clear
8:53 AM 84.0 °F 89.6 °F 72.0 °F 67% 29.91 in 10.0 mi WSW 13.8 mph 20.7 mph N/A   Clear
9:53 AM 86.0 °F 91.5 °F 71.1 °F 61% 29.91 in 10.0 mi WSW 16.1 mph 28.8 mph N/A   Clear
10:53 AM 88.0 °F 94.7 °F 72.0 °F 59% 29.90 in 10.0 mi North - - N/A   Scattered Clouds
11:53 AM 88.0 °F 93.8 °F 71.1 °F 57% 29.89 in 10.0 mi WSW 20.7 mph 31.1 mph 0.01 in   Clear
12:53 PM 88.0 °F 95.6 °F 73.0 °F 61% 29.88 in 10.0 mi WSW 23.0 mph 39.1 mph N/A   Clear
1:53 PM 89.1 °F 97.0 °F 73.0 °F 59% 29.85 in 10.0 mi WSW 20.7 mph 34.5 mph N/A   Clear
2:53 PM 89.1 °F 96.0 °F 72.0 °F 57% 29.83 in 10.0 mi WSW 17.3 mph 34.5 mph N/A   Clear
3:53 PM 89.1 °F 95.0 °F 71.1 °F 55% 29.80 in 10.0 mi WSW 20.7 mph 34.5 mph N/A   Clear
4:53 PM 89.1 °F 93.7 °F 69.1 °F 52% 29.78 in 10.0 mi WSW 17.3 mph 31.1 mph N/A   Clear
5:53 PM 89.1 °F 95.0 °F 71.1 °F 55% 29.77 in 10.0 mi WSW 11.5 mph 19.6 mph N/A   Clear
6:53 PM 88.0 °F 94.7 °F 72.0 °F 59% 29.77 in 10.0 mi WSW 10.4 mph - N/A   Clear
7:53 PM 84.9 °F 90.7 °F 72.0 °F 65% 29.77 in 10.0 mi SW 11.5 mph - N/A   Clear
8:53 PM 84.0 °F 89.0 °F 71.1 °F 65% 29.75 in 10.0 mi SW 15.0 mph 21.9 mph N/A   Mostly Cloudy
9:53 PM 82.0 °F 85.9 °F 70.0 °F 67% 29.77 in 10.0 mi SSW 19.6 mph - N/A   Partly Cloudy
10:53 PM 75.0 °F - 66.0 °F 73% 29.81 in 10.0 mi North 6.9 mph - N/A Thunderstorm Overcast
11:21 PM 73.4 °F - 66.2 °F 78% 29.81 in 10.0 mi SSE 12.7 mph - 0.00 in Rain Light Rain
11:53 PM 73.0 °F - 68.0 °F 84% 29.78 in 8.0 mi SSW 9.2 mph - 0.01 in Rain Light Rain